UWSSUDYZ

Guest
Details From UWSS - Tsentralny
To UDYZ - Zvartnots
Flight Number -
Tags Generated
Created
Modified
Stats Distance 690 nm / 1,278 km
Max Altitude 0 ft / 0 m
Waypoints 4
Social Downloads 0
Likes 0
Share VATSIM

Download

Looking for another format? Having issues loading an existing format? Contact us
Advertisement - Login to hide

Notes

Generated

Route

UWSS RISKA ZVR45 UDYZ

ID Type Via Altitude Latitude Longitude Leg Dist Tot Dist Heading (true) Name
O UWSS APT - 0 ft / 0 m 51.57167˚ 46.03333˚ - 0 nm - -
RISKA FIX - 0 ft / 0 m 44.06667˚ 44.58333˚ 454 nm 454 nm 188° / 187° -
ZVR45 FIX - 0 ft / 0 m 40.23667˚ 44.34667˚ 230 nm 684 nm 183° / 183° -
O UDYZ APT - 0 ft / 0 m 40.14715˚ 44.37329˚ 5 nm 690 nm 167° / 167° -

Altitude Profile

Advertisement - Login to hide

Weather


0- 5 10 15 20 25 30 35+ Temperature / ° C

Clouds and Precipitation
Forecast for 2018-05-21 12:00 UTC. Updated a minute ago

Ground ~20,000 ft ~40,000 ft Winds

UWSS

Details ICAO UWSS (RTW)
Name TSENTRALNY
Region Russia
Timezone Europe/Volgograd (UTC+3.0)
Stats Elevation 499 ft / 152 m (AMSL)
Location 51.565833° 46.046667°
Runways 1
Magnetic Variation 10.676° E

METAR

UWSS 211100Z 04006MPS CAVOK 20/14 Q1020 R12/010095 NOSIG RMK QFE753

Decode

TAF

Not found

Departure Runways

ID Width Length Bearing (true) Bearing (mag) Surface Threshold Offset Overrun Length
12 138 ft / 42 m 7,397 ft / 2,255 m 125.13° 114.45° Asphalt 0 ft / 0 m 95 ft / 29 m
30 138 ft / 42 m 7,397 ft / 2,255 m 305.15° 294.47° Asphalt 0 ft / 0 m 95 ft / 29 m

UDYZ

Details ICAO UDYZ (EVN)
Name ZVARTNOTS
Region Armenia
Timezone Asia/Yerevan (UTC+4.0)
Stats Elevation 2,838 ft / 865 m (AMSL)
Location 40.147271° 44.395880°
Runways 1
Magnetic Variation 6.234° E

METAR

UDYZ 211100Z 20006KT 170V240 9999 SCT040CB 23/13 Q1017 R09/000070 NOSIG

Decode

TAF

TAF UDYZ 202320Z 2100/2124 12006KT 9999 SCT040 BKN100 TEMPO 2100/2106 -SHRA BKN030CB TEMPO 2106/2118 VRB20KT -TSRA BKN020CB

Decode

Destination Runways

ID Width Length Bearing (true) Bearing (mag) Surface Threshold Offset Overrun Length
09 184 ft / 56 m 12,601 ft / 3,841 m 89.59° 83.36° Asphalt 0 ft / 0 m 0 ft / 0 m
27 184 ft / 56 m 12,601 ft / 3,841 m 269.62° 263.39° Asphalt 0 ft / 0 m 0 ft / 0 m

Approach Navaids

Runway Type Ident Frequency Range Bearing (true) Bearing (mag) Slope Elevation
09 Localiser IZR 108.10 MHz 18 nm / 33 km 89.83° 83.60° - 2,838 ft / 865 m (AMSL)
09 Glidescope IZR 108.10 MHz 10 nm / 19 km 89.61° 83.37° 2.67° 2,838 ft / 865 m (AMSL)